Date String (YYYY-MM-DD hh:mm:ss) UTC,Instrument flags,Ambient pressure (hPa),Sample flow (lpm),Bypass flow (lpm),Sample temperature (°C),Ambient temperature (°C),ASC tube jacket temperature (°C),LED temperature (°C),Box temperature (°C),Sample RH (%),Span deviation,Mass concentration (μg/m³),Mass concentration (μg/m³),Mass concentration (μg/m³)
DateTimeUTC,F1_M11,P_M11,Q1_M11,Q2_M11,T1_M11,T2_M11,T3_M11,T4_M11,T5_M11,U1_M11,ZSPAN_M11,X0_M11,X2_M11,X1_M11
2022-04-09 11:00:00,,0820.2,5.00,0.00,27.2,26.5,00.0,36.1,29.1,07.7,0000.0,0006.71,0002.20,0001.27
2022-04-09 11:01:00,,0820.2,5.00,0.00,27.2,26.5,00.0,36.1,29.1,07.6,0000.0,0006.73,0002.14,0001.27
2022-04-09 11:02:00,,0820.2,5.00,0.00,27.2,26.5,00.0,36.1,29.1,07.7,0000.0,0006.76,0002.17,0001.27
2022-04-09 11:03:00,,0820.2,4.99,0.00,27.3,26.5,00.0,36.1,29.1,07.7,0000.0,0007.02,0002.23,0001.26
2022-04-09 11:04:00,,0820.3,5.01,0.00,27.3,26.5,00.0,36.1,29.1,07.7,0000.0,0006.86,0002.24,0001.25
2022-04-09 11:05:00,,0820.3,5.01,0.00,27.3,26.5,00.0,36.1,29.2,07.7,0000.0,0007.01,0002.25,0001.26
2022-04-09 11:06:00,,0820.2,4.99,0.00,27.3,26.5,00.0,36.2,29.1,07.7,0000.0,0006.99,0002.22,0001.24
2022-04-09 11:07:00,,0820.2,4.99,0.00,27.3,26.5,00.0,36.2,29.1,07.7,0000.0,0006.69,0002.23,0001.23
2022-04-09 11:08:00,,0820.1,5.00,0.00,27.3,26.5,00.0,36.2,29.2,07.7,0000.0,0006.85,0002.30,0001.25
2022-04-09 11:09:00,,0820.1,5.01,0.00,27.3,26.5,00.0,36.2,29.2,07.7,0000.0,0007.10,0002.38,0001.27
2022-04-09 11:10:00,,0820.1,5.01,0.00,27.3,26.5,00.0,36.2,29.1,07.6,0000.0,0007.18,0002.40,0001.27
2022-04-09 11:11:00,,0820.1,5.00,0.00,27.3,26.5,00.0,36.2,29.1,07.6,0000.0,0006.39,0002.32,0001.26
2022-04-09 11:12:00,,0820.1,5.00,0.00,27.3,26.5,00.0,36.2,29.1,07.7,0000.0,0006.19,0002.34,0001.25
2022-04-09 11:13:00,,0820.0,5.00,0.00,27.3,26.4,00.0,36.2,29.1,07.7,0000.0,0006.31,0002.28,0001.25
2022-04-09 11:14:00,,0820.0,5.00,0.00,27.3,26.4,00.0,36.2,29.1,07.7,0000.0,0006.44,0002.24,0001.25
2022-04-09 11:15:00,,0820.1,5.01,0.00,27.3,26.4,00.0,36.2,29.1,07.7,0000.0,0006.50,0002.26,0001.26
2022-04-09 11:16:00,,0820.1,5.00,0.00,27.3,26.4,00.0,36.2,29.1,07.7,0000.0,0006.03,0002.26,0001.25
2022-04-09 11:17:00,,0820.0,5.00,0.00,27.3,26.4,00.0,36.2,29.1,07.7,0000.0,0005.92,0002.37,0001.26
2022-04-09 11:18:00,,0820.0,4.99,0.00,27.3,26.4,00.0,36.2,29.1,07.7,0000.0,0005.78,0002.40,0001.26
2022-04-09 11:19:00,,0820.0,5.00,0.00,27.3,26.4,00.0,36.2,29.0,07.7,0000.0,0005.90,0002.36,0001.25
2022-04-09 11:20:00,,0820.0,5.01,0.00,27.2,26.4,00.0,36.2,29.0,07.7,0000.0,0005.83,0002.32,0001.24
2022-04-09 11:21:00,,0820.0,5.01,0.00,27.2,26.4,00.0,36.2,29.0,07.7,0000.0,0005.64,0002.27,0001.24
2022-04-09 11:22:00,,0819.9,5.00,0.00,27.2,26.3,00.0,36.2,29.0,07.7,0000.0,0006.38,0002.34,0001.24
2022-04-09 11:23:00,,0819.9,5.00,0.00,27.2,26.3,00.0,36.2,28.9,07.7,0000.0,0006.21,0002.29,0001.25
2022-04-09 11:24:00,,0819.9,5.00,0.00,27.1,26.3,00.0,36.2,28.9,07.7,0000.0,0006.22,0002.29,0001.24
2022-04-09 11:25:00,,0819.9,5.01,0.00,27.1,26.3,00.0,36.2,28.9,07.7,0000.0,0006.05,0002.29,0001.25
2022-04-09 11:26:00,,0819.9,5.01,0.00,27.1,26.3,00.0,36.2,28.9,07.7,0000.0,0006.20,0002.29,0001.25
2022-04-09 11:27:00,,0819.9,5.01,0.00,27.1,26.2,00.0,36.1,28.9,07.7,0000.0,0006.57,0002.29,0001.27
2022-04-09 11:28:00,,0819.9,5.00,0.00,27.1,26.3,00.0,36.1,28.8,07.7,0000.0,0007.00,0002.22,0001.28
2022-04-09 11:29:00,,0819.9,4.99,0.00,27.1,26.3,00.0,36.1,28.9,07.7,0000.0,0006.46,0002.17,0001.28
2022-04-09 11:30:00,,0819.9,5.00,0.00,27.1,26.2,00.0,36.1,28.9,07.6,0000.0,0006.23,0002.16,0001.29
2022-04-09 11:31:00,,0819.9,5.00,0.00,27.1,26.2,00.0,36.1,28.9,07.7,0000.0,0006.10,0002.14,0001.30
2022-04-09 11:32:00,,0819.9,5.00,0.00,27.1,26.2,00.0,36.1,28.9,07.7,0000.0,0006.10,0002.14,0001.30
2022-04-09 11:33:00,,0819.9,5.00,0.00,27.1,26.2,00.0,36.1,28.9,07.6,0000.0,0005.54,0002.14,0001.31
2022-04-09 11:34:00,,0819.9,5.00,0.00,27.1,26.2,00.0,36.1,28.9,07.6,0000.0,0005.64,0002.20,0001.31
2022-04-09 11:35:00,,0819.9,4.99,0.00,27.1,26.2,00.0,36.1,28.9,07.7,0000.0,0005.44,0002.21,0001.31
2022-04-09 11:36:00,,0819.9,5.00,0.00,27.1,26.2,00.0,36.1,28.9,07.7,0000.0,0005.45,0002.23,0001.31
2022-04-09 11:37:00,,0819.8,5.01,0.00,27.1,26.2,00.0,36.1,28.9,07.7,0000.0,0005.15,0002.20,0001.31
2022-04-09 11:38:00,,0819.8,5.00,0.00,27.1,26.2,00.0,36.1,28.9,07.6,0000.0,0005.30,0002.22,0001.30
2022-04-09 11:39:00,,0819.9,4.99,0.00,27.0,26.2,00.0,36.1,28.8,07.7,0000.0,0005.39,0002.22,0001.30
2022-04-09 11:40:00,,0819.8,5.01,0.00,27.0,26.2,00.0,36.1,28.8,07.7,0000.0,0005.71,0002.25,0001.30
2022-04-09 11:41:00,,0819.8,4.99,0.00,27.0,26.2,00.0,36.0,28.8,07.7,0000.0,0005.75,0002.27,0001.30
2022-04-09 11:42:00,,0819.8,5.00,0.00,27.0,26.2,00.0,36.0,28.7,07.7,0000.0,0005.84,0002.31,0001.31
2022-04-09 11:43:00,,0819.8,4.99,0.00,27.0,26.1,00.0,36.0,28.7,07.7,0000.0,0005.86,0002.33,0001.31
2022-04-09 11:44:00,,0819.8,4.99,0.00,27.0,26.1,00.0,36.0,28.7,07.7,0000.0,0005.90,0002.31,0001.31
2022-04-09 11:45:00,,0819.7,5.00,0.00,27.0,26.1,00.0,36.0,28.7,07.8,0000.0,0005.98,0002.30,0001.31
2022-04-09 11:46:00,,0819.7,5.00,0.00,27.0,26.1,00.0,36.0,28.7,07.7,0000.0,0005.88,0002.28,0001.31
2022-04-09 11:47:00,,0819.7,5.00,0.00,27.0,26.1,00.0,36.0,28.7,07.6,0000.0,0005.74,0002.26,0001.30
2022-04-09 11:48:00,,0819.7,5.01,0.00,27.0,26.1,00.0,36.0,28.7,07.7,0000.0,0005.89,0002.27,0001.29
2022-04-09 11:49:00,,0819.7,5.01,0.00,27.0,26.1,00.0,36.0,28.7,07.7,0000.0,0005.50,0002.31,0001.29
2022-04-09 11:50:00,,0819.5,5.00,0.00,27.0,26.2,00.0,36.0,28.7,07.6,0000.0,0005.00,0002.36,0001.30
2022-04-09 11:51:00,,0819.5,4.99,0.00,27.0,26.2,00.0,36.0,28.7,07.7,0000.0,0005.01,0002.42,0001.29
2022-04-09 11:52:00,,0819.5,4.99,0.00,27.0,26.2,00.0,36.0,28.7,07.6,0000.0,0005.12,0002.41,0001.29
2022-04-09 11:53:00,,0819.5,5.01,0.00,27.0,26.2,00.0,36.0,28.7,07.7,0000.0,0005.19,0002.42,0001.29
2022-04-09 11:54:00,,0819.5,5.01,0.00,27.0,26.2,00.0,36.0,28.7,07.7,0000.0,0005.50,0002.47,0001.28
2022-04-09 11:55:00,,0819.5,5.00,0.00,27.0,26.2,00.0,36.0,28.7,07.6,0000.0,0005.56,0002.51,0001.29
2022-04-09 11:56:00,,0819.5,5.00,0.00,27.0,26.2,00.0,36.0,28.8,07.6,0000.0,0005.60,0002.53,0001.29
2022-04-09 11:57:00,,0819.4,5.00,0.00,27.0,26.2,00.0,36.0,28.7,07.7,0000.0,0005.51,0002.49,0001.29
2022-04-09 11:58:00,,0819.5,4.99,0.00,27.0,26.2,00.0,36.0,28.8,07.5,0000.0,0005.77,0002.49,0001.28
2022-04-09 11:59:00,,0819.4,4.99,0.00,27.0,26.2,00.0,36.0,28.8,07.6,0000.0,0006.81,0002.54,0001.28
